Big Bear City, CA

12:52 AM PST on January 22, 2017 (GMT -0800)
Big Bear City

Weather History for KL35 - December, 2012

Change the Weather History Date:

Sunday, December 16, 2012

  Actual Average (KBUO) Record (KBUO)
Temperature  
Mean Temperature 32 °F -  
Max Temperature 37 °F 60 °F 73 °F (1999)
Min Temperature 26 °F 41 °F 44 °F (1996)
Degree Days  
Heating Degree Days 34    
Moisture  
Dew Point 29 °F    
Average Humidity 86    
Maximum Humidity 100    
Minimum Humidity 70    
Precipitation  
Precipitation 0.00 in - - ()
Sea Level Pressure  
Sea Level Pressure 30.07 in    
Wind  
Wind Speed 9 mph (WSW)    
Max Wind Speed 16 mph    
Max Gust Speed 22 mph    
Visibility 8 miles    
Events Snow    
Averages and records for this station are not official NWS values.
T = Trace of Precipitation, MM = Missing Value Source: NWS Daily Summary

Daily Weather History Graph

Daily Weather History Graph

Search for Another Location

Airport or City:

Trip Planner

Search our weather history database for the weather conditions in past years. The results will help you decide how hot, cold, wet, or windy it might be!

Date:

Astronomy

Dec. 16, 2012 Rise Set
Actual Time 6:47 AM PST 4:39 PM PST
Civil Twilight 6:19 AM PST 5:07 PM PST
Nautical Twilight 5:47 AM PST 5:38 PM PST
Astronomical Twilight 5:17 AM PST 6:09 PM PST
Moon 9:31 AM PST (12/16) 8:50 PM PST (12/16)
Length of Visible Light 10h 48m
Length of Day
9h 52m
Waxing Crescent, 17% of the Moon is Illuminated
Dec 16
Waxing Crescent
Dec 19
First Quarter
Dec 28
Full
Jan 4
Last Quarter
Jan 11
New

Hourly Weather History & Observations

Time (PST) Temp. Windchill Dew Point Humidity Pressure Visibility Wind Dir Wind Speed Gust Speed Precip Events Conditions
12:15 AM 26.6 °F 16.8 °F 23.0 °F 86% 29.97 in 10.0 mi WSW 10.4 mph 17.3 mph N/A   Overcast
12:35 AM 26.6 °F 15.7 °F 21.2 °F 80% 29.97 in 10.0 mi WSW 12.7 mph 18.4 mph N/A   Overcast
12:55 AM 26.6 °F 16.2 °F 21.2 °F 80% 29.98 in 10.0 mi West 11.5 mph 18.4 mph N/A   Overcast
1:15 AM 26.6 °F 17.5 °F 21.2 °F 80% 29.98 in 7.0 mi WSW 9.2 mph - N/A   Overcast
1:55 AM 26.6 °F 19.1 °F 23.0 °F 86% 29.99 in 10.0 mi WSW 6.9 mph - N/A   Overcast
2:15 AM 26.6 °F 16.8 °F 23.0 °F 86% 29.99 in 3.0 mi West 10.4 mph - N/A Snow Light Snow
2:35 AM 26.6 °F 18.2 °F 24.8 °F 93% 30.00 in 3.0 mi West 8.1 mph - N/A Snow Light Snow
2:55 AM 28.4 °F 19.1 °F 24.8 °F 86% 29.99 in 3.0 mi WSW 10.4 mph - N/A   Overcast
3:15 AM 28.4 °F 19.7 °F 24.8 °F 86% 29.99 in 3.0 mi WSW 9.2 mph - N/A   Overcast
3:35 AM 28.4 °F 20.4 °F 24.8 °F 86% 30.00 in 5.0 mi WSW 8.1 mph - N/A   Overcast
3:55 AM 28.4 °F 21.2 °F 24.8 °F 86% 30.00 in 10.0 mi WSW 6.9 mph - N/A   Overcast
4:15 AM 30.2 °F 23.4 °F 24.8 °F 80% 30.00 in 10.0 mi SW 6.9 mph - N/A   Overcast
4:35 AM 30.2 °F 24.3 °F 26.6 °F 86% 30.00 in 5.0 mi WSW 5.8 mph - N/A   Overcast
5:15 AM 30.2 °F 22.6 °F 26.6 °F 86% 30.01 in 5.0 mi WSW 8.1 mph - N/A   Overcast
5:35 AM 30.2 °F 20.8 °F 28.4 °F 93% 30.02 in 7.0 mi WSW 11.5 mph 17.3 mph N/A   Overcast
5:55 AM 30.2 °F 22.6 °F 28.4 °F 93% 30.03 in 5.0 mi WSW 8.1 mph - N/A   Overcast
6:35 AM 30.2 °F 24.3 °F 26.6 °F 86% 30.03 in 10.0 mi SW 5.8 mph - N/A   Scattered Clouds
6:55 AM 28.4 °F - 26.6 °F 93% 30.03 in 10.0 mi Calm Calm - N/A   Clear
7:15 AM 28.4 °F 20.4 °F 24.8 °F 86% 30.05 in 10.0 mi West 8.1 mph - N/A   Clear
7:35 AM 30.2 °F 23.4 °F 26.6 °F 86% 30.06 in 10.0 mi WSW 6.9 mph - N/A   Clear
7:55 AM 30.2 °F 24.3 °F 26.6 °F 86% 30.07 in 10.0 mi WSW 5.8 mph - N/A   Clear
8:15 AM 32.0 °F 25.6 °F 28.4 °F 87% 30.07 in 10.0 mi WSW 6.9 mph - N/A   Clear
8:35 AM 32.0 °F 24.8 °F 28.4 °F 87% 30.07 in 10.0 mi SW 8.1 mph - N/A   Clear
8:55 AM 33.8 °F 29.6 °F 28.4 °F 81% 30.07 in 10.0 mi WSW 4.6 mph - N/A   Clear
9:15 AM 35.6 °F 29.9 °F 26.6 °F 70% 30.08 in 10.0 mi WSW 6.9 mph - N/A   Clear
9:35 AM 37.4 °F 32.1 °F 28.4 °F 70% 30.08 in 10.0 mi West 6.9 mph - N/A   Clear
9:55 AM 37.4 °F 31.4 °F 28.4 °F 70% 30.09 in 10.0 mi WSW 8.1 mph - N/A   Clear
10:35 AM 37.4 °F 28.5 °F 30.2 °F 75% 30.10 in 10.0 mi West 15.0 mph 18.4 mph N/A   Clear
10:55 AM 37.4 °F 29.3 °F 30.2 °F 75% 30.10 in 10.0 mi West 12.7 mph - N/A   Clear
11:15 AM 37.4 °F 29.8 °F 30.2 °F 75% 30.10 in 10.0 mi West 11.5 mph - N/A   Clear
11:35 AM 37.4 °F 28.9 °F 32.0 °F 81% 30.10 in 10.0 mi West 13.8 mph - N/A   Clear
11:55 AM 35.6 °F 26.6 °F 32.0 °F 87% 30.09 in 10.0 mi West 13.8 mph - N/A   Clear
12:15 PM 37.4 °F 28.2 °F 30.2 °F 75% 30.09 in 10.0 mi West 16.1 mph 21.9 mph N/A   Clear
12:35 PM 37.4 °F 30.3 °F 32.0 °F 81% 30.08 in 10.0 mi West 10.4 mph 19.6 mph N/A   Scattered Clouds
12:55 PM 37.4 °F 30.8 °F 32.0 °F 81% 30.08 in 10.0 mi West 9.2 mph 19.6 mph N/A   Mostly Cloudy
1:15 PM 37.4 °F 30.3 °F 32.0 °F 81% 30.08 in 10.0 mi West 10.4 mph 18.4 mph N/A   Overcast
1:35 PM 35.6 °F 26.2 °F 32.0 °F 87% 30.07 in 10.0 mi West 15.0 mph - N/A   Overcast
1:55 PM 35.6 °F 27.5 °F 32.0 °F 87% 30.07 in 10.0 mi West 11.5 mph 19.6 mph N/A   Overcast
2:15 PM 37.4 °F 29.8 °F 32.0 °F 81% 30.07 in 10.0 mi WSW 11.5 mph 18.4 mph N/A   Overcast
2:35 PM 37.4 °F 29.8 °F 32.0 °F 81% 30.07 in 10.0 mi West 11.5 mph 18.4 mph N/A   Overcast
2:55 PM 35.6 °F 28.6 °F 32.0 °F 87% 30.08 in 10.0 mi West 9.2 mph - N/A   Overcast
3:15 PM 37.4 °F 30.8 °F 32.0 °F 81% 30.08 in 10.0 mi WSW 9.2 mph - N/A   Overcast
3:35 PM 37.4 °F 30.3 °F 32.0 °F 81% 30.07 in 10.0 mi WSW 10.4 mph 16.1 mph N/A   Overcast
3:55 PM 35.6 °F 26.6 °F 32.0 °F 87% 30.08 in 7.0 mi West 13.8 mph 21.9 mph N/A   Overcast
4:15 PM 35.6 °F 27.5 °F 32.0 °F 87% 30.08 in 1.8 mi WSW 11.5 mph - N/A   Overcast
4:35 PM 35.6 °F 28.0 °F 32.0 °F 87% 30.09 in 4.0 mi West 10.4 mph - N/A   Overcast
4:55 PM 35.6 °F 27.5 °F 32.0 °F 87% 30.09 in 10.0 mi WSW 11.5 mph 18.4 mph N/A   Overcast
5:15 PM 35.6 °F 29.2 °F 32.0 °F 87% 30.09 in 2.0 mi WSW 8.1 mph - N/A   Overcast
5:35 PM 35.6 °F 27.1 °F 32.0 °F 87% 30.10 in 2.5 mi West 12.7 mph - N/A   Overcast
5:55 PM 35.6 °F 28.0 °F 32.0 °F 87% 30.10 in 10.0 mi WSW 10.4 mph - N/A   Mostly Cloudy
6:15 PM 33.8 °F 25.3 °F 32.0 °F 93% 30.10 in 10.0 mi West 11.5 mph 16.1 mph N/A   Mostly Cloudy
6:35 PM 33.8 °F 25.8 °F 32.0 °F 93% 30.11 in 7.0 mi West 10.4 mph - N/A   Overcast
6:55 PM 33.8 °F 26.4 °F 32.0 °F 93% 30.10 in 10.0 mi West 9.2 mph - N/A   Scattered Clouds
7:15 PM 33.8 °F 27.0 °F 32.0 °F 93% 30.11 in 10.0 mi West 8.1 mph - N/A   Scattered Clouds
7:35 PM 33.8 °F 30.8 °F 32.0 °F 93% 30.12 in 10.0 mi West 3.5 mph - N/A   Scattered Clouds
7:55 PM 33.8 °F 29.6 °F 32.0 °F 93% 30.12 in 10.0 mi West 4.6 mph - N/A   Scattered Clouds
8:15 PM 33.8 °F 27.0 °F 32.0 °F 93% 30.12 in 10.0 mi WSW 8.1 mph - N/A   Scattered Clouds
8:35 PM 33.8 °F 28.6 °F 32.0 °F 93% 30.12 in 1.0 mi SW 5.8 mph - N/A   Overcast
8:55 PM 32.0 °F 27.5 °F 32.0 °F 100% 30.13 in 2.0 mi SW 4.6 mph - N/A   Overcast
9:15 PM 32.0 °F - 32.0 °F 100% 30.14 in 7.0 mi Calm Calm - N/A   Mostly Cloudy
9:35 PM 32.0 °F - 30.2 °F 93% 30.14 in 1.2 mi Calm Calm - N/A   Overcast
9:55 PM 32.0 °F 28.7 °F 30.2 °F 93% 30.14 in 0.8 mi SW 3.5 mph - N/A   Overcast
10:15 PM 32.0 °F 28.7 °F 30.2 °F 93% 30.14 in 2.0 mi SW 3.5 mph - N/A   Overcast
10:35 PM 30.2 °F - 28.4 °F 93% 30.14 in 7.0 mi Calm Calm - N/A   Scattered Clouds
10:55 PM 30.2 °F - 28.4 °F 93% 30.14 in 7.0 mi Calm Calm - N/A   Clear
11:15 PM 30.2 °F - 28.4 °F 93% 30.14 in 7.0 mi Calm Calm - N/A   Scattered Clouds
11:35 PM 30.2 °F - 28.4 °F 93% 30.14 in 10.0 mi Calm Calm - N/A   Clear
11:55 PM 30.2 °F - 28.4 °F 93% 30.14 in 5.0 mi Calm Calm - N/A   Scattered Clouds